Temperature
22 20 20 20 20 21 20 19 18 18 18 17 16 15 15 16 15 15 15 15 15 15 15 14 14 14 13 13 13 13 13 13 13 13 13 13 13 13 13 14 14 14 14 14
20 21 22 21 20 20 19 18 18 18 18 17 16 15 15 15 15 15 15 15 15 15 15 14 14 14 13 13 13 13 12 12 12 12 12 12 12 13 13 13 13 13 14 14
21 21 22 21 20 20 19 18 18 17 17 16 16 15 15 15 15 15 15 15 15 15 14 14 14 13 13 13 13 12 12 12 12 12 12 12 12 13 13 13 13 13 13 14
21 21 21 21 20 20 20 19 19 17 16 15 16 14 14 14 14 14 15 15 15 15 14 14 14 13 13 13 13 12 12 12 12 12 12 12 12 12 12 12 13 13 13 13
20 21 21 21 20 20 19 18 18 17 16 15 15 14 14 14 14 13 14 15 15 15 14 14 14 13 13 13 13 12 12 12 12 12 12 12 12 12 12 12 12 13 13 13
20 21 21 20 19 19 18 16 15 14 14 15 15 14 14 13 14 14 15 15 15 15 14 14 14 13 13 13 13 12 12 12 12 12 12 12 12 12 12 12 12 12 12 13
20 20 20 20 19 18 17 16 15 16 14 14 15 14 14 14 14 14 15 15 15 15 14 14 14 13 13 13 12 12 12 12 12 12 12 12 12 12 12 12 12 12 12 12
20 19 20 20 19 18 17 16 15 16 15 14 15 14 14 15 15 16 16 16 15 15 14 14 14 13 13 13 12 12 12 12 12 12 12 12 12 12 12 12 12 12 12 12
19 19 20 20 19 18 17 15 15 13 15 14 14 14 14 15 15 15 15 15 15 15 15 14 14 13 13 13 12 12 12 12 12 11 11 11 11 11 11 11 11 11 12 12
18 19 19 19 19 18 17 14 13 14 15 15 14 14 14 15 14 13 14 15 15 15 15 14 14 14 13 13 13 12 12 12 11 11 11 11 11 11 11 11 11 11 11 11
18 17 18 18 19 18 17 15 13 12 13 13 14 14 14 15 14 13 14 16 16 15 15 15 14 14 13 13 13 12 12 12 11 11 11 11 11 11 11 11 11 11 11 11
15 14 16 17 18 18 18 16 13 15 14 12 12 13 15 14 14 15 15 16 16 15 15 15 14 14 13 13 13 12 12 12 11 11 11 11 11 11 11 11 11 11 11 11
15 15 16 17 17 18 18 16 14 12 11 11 12 14 14 14 15 15 16 16 16 16 15 15 14 14 14 13 13 12 12 12 11 11 11 11 11 11 11 11 11 11 11 11
16 15 16 17 17 16 17 16 14 13 13 12 12 13 14 14 13 15 16 16 16 16 15 15 15 14 14 13 13 13 12 12 12 11 11 11 11 11 11 11 11 11 11 11
15 16 17 17 18 17 17 17 15 14 14 14 14 14 14 14 14 16 17 16 16 16 15 15 15 14 14 14 13 13 12 12 12 11 11 11 11 11 11 11 11 11 11 11
14 16 18 18 18 18 18 17 16 15 15 14 14 14 14 16 16 16 16 17 16 16 16 15 15 15 14 14 13 13 13 12 12 11 11 11 11 11 11 11 11 11 11 11
14 16 16 16 17 18 18 17 16 16 15 15 15 15 15 15 15 17 17 17 17 17 16 16 15 15 14 14 14 13 13 12 12 12 11 11 11 11 11 11 11 11 11 11
14 13 12 14 17 19 18 18 17 17 16 15 15 15 16 17 18 19 19 18 18 17 17 16 15 15 15 14 14 13 13 12 12 12 11 11 11 11 11 11 11 11 11 11
13 13 13 13 16 16 18 18 17 18 18 17 15 16 17 17 17 18 19 19 18 18 17 16 16 15 15 14 14 13 13 13 12 12 12 11 11 11 11 11 11 11 11 11
12 12 12 13 17 18 18 19 19 19 19 19 18 17 17 16 14 16 20 19 19 18 17 16 16 15 15 15 14 14 13 13 12 12 12 11 11 11 11 11 11 11 11 11
15 13 13 14 16 15 16 18 19 19 18 20 20 19 18 17 17 20 20 20 19 18 17 17 16 16 15 15 14 14 14 13 13 12 12 12 11 11 11 11 11 11 11 11
14 13 13 12 15 17 18 17 17 18 21 21 21 21 20 21 21 20 20 19 19 18 18 17 16 16 16 15 15 14 14 14 13 13 12 12 11 11 11 11 11 11 11 11
13 14 13 13 16 18 18 18 20 20 20 21 21 21 21 21 20 20 20 19 19 18 18 17 17 16 16 16 15 15 14 14 13 13 13 12 12 11 11 11 11 11 11 11
13 13 12 13 15 17 18 18 19 20 20 21 21 21 21 21 21 20 20 20 19 19 18 18 17 17 17 16 16 15 15 14 14 13 13 13 12 12 11 11 11 11 11 11
14 12 13 14 14 17 19 18 19 20 21 21 21 21 21 21 21 20 20 20 19 19 18 18 18 17 17 17 16 16 15 14 14 14 13 13 12 12 12 12 11 11 11 11
11 11 13 14 14 13 16 16 18 19 20 20 21 21 20 20 20 20 20 20 19 19 18 18 18 18 17 17 17 16 16 15 15 14 14 13 13 12 12 12 12 11 11 11
Wind_Speed
4 6 4 7 7 4 5 5 3 2 2 4 4 3 3 3 3 3 3 3 4 5 5 6 6 6 6 6 7 7 8 8 7 5 5 5 5 5 5 4 5 6 5 5
6 2 2 4 5 6 6 6 3 2 2 3 2 2 3 3 4 5 5 4 4 5 6 6 7 6 6 7 7 7 8 8 7 5 5 4 5 5 4 4 5 6 5 5
6 2 4 6 6 6 3 5 5 4 3 4 3 4 3 2 2 2 3 3 4 5 6 7 7 7 7 8 8 8 8 9 8 7 5 5 4 4 4 4 5 5 6 5
4 2 5 6 3 4 2 2 5 6 4 1 1 4 6 4 3 4 5 5 5 6 6 6 7 8 8 8 8 7 8 8 8 7 6 6 4 4 5 5 5 6 5 5
3 3 5 4 2 3 3 4 5 4 4 2 0 2 7 1 5 8 7 6 6 6 6 7 7 7 7 7 7 7 8 7 7 7 6 6 5 4 5 5 6 5 5 4
4 2 3 4 4 4 6 7 7 6 5 2 3 4 7 5 7 5 5 6 6 6 6 7 7 6 6 7 7 7 8 8 8 8 7 6 7 7 7 7 6 5 4 4
5 4 4 3 5 5 7 6 5 5 4 5 2 3 8 6 7 6 6 7 7 6 6 7 7 7 7 8 8 7 8 8 8 8 8 7 7 6 6 6 6 5 4 4
5 1 3 2 4 4 3 7 6 3 4 5 3 5 7 4 3 4 4 4 5 6 6 6 7 7 7 8 7 7 7 7 8 8 8 7 7 5 5 5 5 5 4 4
7 3 2 2 3 7 5 3 5 6 1 3 6 7 7 1 2 3 4 5 6 7 7 6 6 6 6 7 7 6 7 7 7 8 7 7 7 7 7 6 5 5 5 5
7 5 1 1 5 5 4 8 5 4 1 4 7 6 5 6 8 7 6 7 8 7 6 6 6 5 5 5 5 5 5 6 6 7 7 6 7 7 7 6 7 7 6 6
4 6 1 3 2 4 4 5 5 4 4 4 4 7 6 7 7 8 9 8 8 7 7 6 5 5 5 5 5 5 6 5 6 7 7 7 7 7 7 7 7 7 6 7
4 6 2 3 3 2 4 6 7 4 3 4 3 7 6 7 7 7 8 7 7 6 6 5 5 5 4 5 5 5 5 5 5 6 6 7 7 7 8 8 8 8 7 7
6 6 4 5 5 1 2 4 5 6 5 5 3 8 4 3 5 6 7 8 7 6 5 4 4 5 5 4 4 4 4 5 5 5 6 7 7 8 8 8 8 8 7 7
5 5 6 7 7 6 4 5 6 6 4 5 8 9 8 7 8 8 8 8 7 7 6 5 5 5 5 4 4 4 4 4 4 4 5 6 7 7 7 7 8 8 7 7
5 4 4 4 3 4 5 6 8 8 8 8 8 8 11 9 9 9 8 7 7 7 7 7 6 5 5 4 4 3 3 3 3 3 4 5 6 6 7 7 8 8 8 8
4 4 2 2 2 3 4 7 8 8 6 8 8 10 10 7 4 6 8 8 8 9 8 8 7 6 5 5 4 3 3 2 2 3 4 5 6 6 7 7 7 8 8 8
3 5 3 2 4 3 6 7 9 7 8 8 9 9 5 4 7 9 10 9 10 10 9 8 7 6 6 5 4 3 2 1 1 2 4 4 5 6 6 6 7 8 8 8
6 5 4 1 2 4 8 4 7 7 8 10 9 8 7 8 7 7 8 10 11 10 9 8 7 6 5 4 3 2 1 0 1 2 3 4 4 5 6 6 6 6 5 6
4 7 5 3 0 7 8 2 6 4 6 6 9 9 5 1 2 5 8 10 11 10 9 8 7 6 5 5 4 3 1 1 1 2 3 3 3 4 5 6 5 5 5 5
6 6 6 4 1 4 6 3 3 3 5 5 7 7 4 5 0 6 6 8 9 8 7 7 6 5 5 5 5 4 3 2 3 4 3 3 2 2 3 4 4 3 3 4
3 4 4 4 3 8 8 3 3 2 6 5 5 6 8 8 8 5 3 5 7 8 8 7 6 6 6 6 6 5 5 6 6 4 2 2 2 2 2 3 3 3 3 4
7 6 5 5 3 7 4 5 6 7 4 3 3 5 8 10 7 4 4 6 6 7 7 7 7 7 6 7 7 7 7 7 4 3 2 2 2 2 1 1 2 3 3 4
7 8 7 8 7 5 2 5 4 3 4 4 3 5 6 7 6 6 5 6 7 7 7 7 7 7 6 7 8 9 8 6 5 4 4 3 3 2 1 1 1 2 2 2
3 2 4 4 6 4 4 4 5 5 5 6 5 4 4 6 6 6 6 6 6 7 7 6 7 8 8 8 9 10 7 6 6 6 5 4 3 3 2 1 1 1 1 1
2 4 3 4 5 6 5 6 9 7 5 5 4 2 3 5 5 5 6 7 7 7 6 6 8 9 10 9 9 9 8 7 7 7 6 5 4 4 3 3 3 3 4 4
2 4 5 5 2 2 5 8 10 8 7 6 5 4 3 2 5 5 6 6 6 7 6 7 8 10 10 9 9 9 8 9 8 7 7 5 5 4 4 3 4 5 6 6
Wind_Direction
63 87 147 196 195 177 158 156 168 190 139 139 174 198 210 172 167 197 227 262 288 297 300 312 316 320 322 326 331 330 329 329 334 332 330 324 319 315 313 305 308 308 302 293
60 93 185 124 107 101 114 127 138 85 85 118 149 252 244 204 204 212 223 245 270 294 308 315 318 323 325 323 326 326 326 325 330 324 309 291 290 292 291 300 318 319 315 307
130 178 111 105 103 98 106 157 176 164 74 59 74 318 260 249 209 224 237 250 270 279 292 308 316 316 324 324 324 326 323 325 326 327 321 318 313 309 322 326 324 320 320 312
94 59 100 98 97 123 169 196 148 135 119 285 124 287 280 242 255 251 252 262 272 283 292 303 310 315 319 317 321 323 324 326 327 333 337 335 330 318 307 309 308 314 320 319
84 92 101 104 119 131 135 74 94 105 120 47 38 216 289 272 256 257 251 252 261 275 288 298 302 306 312 317 325 326 329 329 333 340 342 338 330 312 308 312 318 323 324 325
72 60 91 123 81 83 108 70 57 51 69 327 233 189 280 233 228 247 244 245 256 273 289 298 305 315 317 323 331 334 337 333 338 344 346 347 341 335 337 335 333 330 326 329
44 23 22 93 90 46 73 81 30 0 3 262 252 208 254 251 228 222 230 243 255 270 283 296 307 316 319 325 332 337 340 335 340 346 348 347 344 341 339 334 334 336 334 331
136 283 344 48 125 125 102 125 149 211 246 286 303 246 258 264 240 221 224 239 260 272 276 284 293 301 308 317 328 335 336 334 340 346 345 346 348 346 340 335 333 331 326 319
152 188 0 63 102 121 117 110 153 133 183 288 287 286 303 221 243 237 244 254 261 267 276 283 294 303 307 313 320 328 333 335 340 345 345 349 351 351 346 341 340 337 335 336
133 138 338 50 76 48 113 139 98 110 146 294 300 287 263 250 243 243 243 247 255 266 277 286 293 300 307 308 316 334 338 335 339 346 350 352 347 348 347 351 352 348 346 346
100 124 57 44 153 171 114 95 103 110 147 164 292 282 231 228 226 225 234 238 246 256 267 275 285 294 304 316 330 338 341 343 346 347 347 351 349 350 352 355 350 347 347 348
99 111 132 268 283 223 175 163 147 150 209 172 200 270 271 243 237 222 231 240 245 251 259 269 282 298 310 319 326 330 332 337 339 341 347 350 349 353 358 356 351 350 349 348
128 109 81 349 340 304 173 147 139 125 118 157 198 266 293 285 250 233 232 240 246 253 263 275 290 295 296 304 313 317 323 326 336 346 351 353 353 354 354 351 348 351 352 354
110 112 159 192 220 196 195 175 152 135 157 212 230 258 288 267 250 244 236 237 239 248 255 261 273 281 283 288 298 308 317 324 338 350 353 353 349 347 346 346 350 353 356 3
100 136 189 221 224 179 208 198 177 186 194 206 241 245 262 255 236 232 229 229 234 245 249 248 252 266 275 280 291 298 308 324 340 352 350 344 341 345 351 355 355 358 6 9
80 123 104 12 10 214 250 236 203 215 214 231 260 273 258 258 227 225 225 222 229 237 241 243 246 255 261 260 266 277 296 312 339 346 338 339 347 352 356 356 359 5 9 9
96 116 103 309 325 15 284 243 197 212 212 198 225 246 260 243 230 225 221 219 225 230 232 233 236 241 248 247 237 239 266 300 345 334 335 344 348 351 351 357 7 10 9 12
122 100 108 91 42 259 247 253 188 211 245 218 231 247 236 235 245 241 217 212 224 225 225 227 227 234 238 228 214 208 214 257 318 324 329 338 346 345 348 1 7 5 5 10
118 125 109 105 248 290 300 248 173 189 281 227 224 248 246 224 2 297 228 209 218 218 214 216 216 217 218 212 197 181 202 244 289 298 306 318 334 342 350 355 354 357 7 12
65 87 107 117 148 255 257 284 178 122 298 268 210 231 184 125 56 273 244 206 215 213 208 210 207 201 209 208 177 178 211 234 256 263 275 296 314 330 338 339 341 349 3 7
83 65 114 148 219 265 252 250 130 106 261 274 210 209 174 189 212 242 249 205 205 205 206 200 194 203 214 190 172 194 217 235 243 249 266 293 304 302 310 334 345 351 4 16
166 152 168 148 185 261 249 153 177 224 256 267 234 209 203 225 241 252 237 219 206 203 204 195 197 216 212 182 179 205 227 235 230 223 247 275 292 306 323 343 345 359 12 19
188 186 182 186 208 246 247 218 260 260 261 265 252 244 221 231 240 237 234 226 217 210 208 199 201 217 215 194 190 210 230 217 205 212 234 254 273 287 302 307 329 346 4 12
248 164 165 244 268 271 273 288 305 278 259 274 267 260 211 227 242 237 233 226 222 219 213 203 199 214 225 212 207 218 222 197 197 215 230 236 244 260 266 262 253 257 281 309
230 164 185 251 292 322 351 1 335 317 300 305 305 271 240 233 248 237 234 230 225 222 214 200 206 219 228 218 217 220 210 191 202 217 225 227 228 235 243 246 238 234 236 218
196 176 178 215 264 274 298 335 341 342 343 339 342 346 333 246 256 251 243 238 228 225 215 212 219 227 233 222 224 222 203 192 199 214 222 221 222 225 227 241 270 252 240 251
Height
1529 1536 1542 1541 1540 1542 1546 1553 1557 1557 1554 1558 1560 1561 1560 1560 1561 1561 1560 1560 1559 1558 1557 1554 1552 1549 1546 1543 1539 1535 1532 1528 1524 1521 1518 1515 1512 1511 1509 1507 1506 1505 1505 1505
1535 1539 1536 1536 1538 1542 1547 1555 1558 1557 1555 1558 1562 1562 1560 1559 1559 1559 1559 1559 1558 1557 1555 1553 1551 1548 1545 1541 1538 1534 1531 1527 1523 1520 1517 1514 1511 1508 1506 1504 1503 1502 1502 1502
1536 1538 1535 1537 1542 1546 1550 1555 1557 1559 1559 1560 1563 1565 1561 1558 1558 1558 1558 1558 1557 1556 1554 1552 1550 1547 1544 1540 1537 1533 1530 1526 1522 1519 1516 1513 1510 1507 1504 1502 1501 1500 1499 1499
1536 1536 1537 1541 1544 1546 1553 1549 1552 1557 1564 1570 1567 1578 1563 1559 1558 1557 1556 1556 1556 1555 1553 1551 1549 1546 1543 1540 1536 1533 1529 1526 1522 1518 1515 1511 1508 1505 1503 1501 1499 1498 1497 1496
1539 1538 1540 1544 1545 1545 1550 1549 1553 1558 1564 1572 1570 1577 1568 1560 1559 1556 1554 1554 1554 1554 1552 1550 1548 1546 1543 1540 1536 1532 1529 1525 1522 1518 1515 1511 1508 1505 1503 1500 1498 1496 1495 1494
1539 1539 1540 1542 1544 1545 1548 1554 1560 1567 1572 1580 1571 1578 1571 1563 1557 1553 1552 1552 1552 1552 1551 1550 1548 1545 1542 1539 1536 1532 1528 1525 1522 1518 1514 1511 1508 1505 1502 1499 1497 1495 1493 1492
1544 1542 1541 1541 1546 1548 1552 1565 1581 1580 1588 1583 1570 1573 1568 1553 1551 1550 1550 1550 1551 1551 1550 1548 1547 1544 1541 1538 1535 1532 1528 1525 1521 1518 1515 1511 1508 1505 1502 1499 1496 1494 1492 1490
1551 1555 1545 1543 1546 1551 1556 1563 1581 1586 1590 1584 1571 1572 1559 1549 1548 1548 1549 1549 1550 1549 1549 1547 1546 1544 1541 1538 1535 1532 1528 1525 1521 1518 1515 1512 1508 1505 1502 1499 1496 1494 1491 1490
1550 1553 1545 1543 1544 1548 1557 1564 1566 1579 1580 1584 1577 1566 1554 1548 1547 1547 1548 1548 1548 1548 1547 1546 1545 1543 1540 1538 1535 1532 1528 1525 1522 1519 1515 1512 1508 1505 1502 1499 1496 1494 1491 1489
1540 1551 1547 1545 1546 1549 1552 1561 1572 1579 1584 1588 1580 1571 1563 1550 1548 1546 1546 1546 1546 1546 1546 1545 1544 1542 1540 1538 1535 1532 1529 1526 1522 1519 1516 1512 1509 1506 1503 1500 1497 1494 1491 1489
1537 1550 1553 1549 1551 1553 1557 1563 1571 1580 1581 1589 1588 1574 1549 1545 1543 1543 1543 1544 1544 1545 1545 1544 1543 1541 1539 1537 1535 1532 1529 1526 1523 1520 1516 1513 1509 1506 1503 1500 1497 1495 1492 1489
1541 1552 1560 1554 1549 1548 1550 1556 1566 1574 1577 1584 1587 1574 1542 1541 1540 1540 1541 1542 1543 1543 1543 1543 1542 1540 1539 1537 1535 1532 1529 1526 1523 1520 1517 1513 1510 1507 1504 1501 1498 1495 1492 1490
1540 1552 1565 1563 1560 1552 1551 1555 1560 1569 1578 1585 1585 1568 1541 1539 1538 1538 1539 1540 1541 1541 1541 1541 1540 1539 1538 1536 1534 1532 1529 1527 1524 1521 1518 1514 1511 1508 1505 1502 1499 1496 1493 1490
1536 1549 1558 1563 1558 1552 1551 1553 1559 1564 1574 1578 1572 1559 1543 1539 1537 1536 1536 1537 1538 1539 1540 1540 1539 1538 1537 1535 1534 1532 1529 1527 1524 1521 1518 1515 1512 1509 1506 1503 1500 1496 1493 1491
1537 1547 1547 1547 1545 1547 1547 1549 1554 1557 1560 1564 1556 1552 1540 1535 1533 1532 1533 1535 1536 1537 1537 1538 1537 1537 1536 1535 1533 1531 1529 1527 1524 1522 1519 1516 1514 1511 1508 1505 1501 1498 1495 1492
1538 1545 1545 1546 1545 1545 1546 1545 1548 1551 1551 1552 1550 1546 1531 1529 1529 1530 1531 1532 1533 1534 1535 1536 1536 1535 1535 1534 1532 1531 1529 1527 1525 1522 1520 1517 1515 1512 1509 1506 1504 1501 1498 1495
1542 1545 1551 1554 1549 1546 1549 1540 1542 1542 1541 1542 1545 1537 1528 1528 1527 1526 1527 1529 1530 1531 1532 1533 1534 1534 1533 1533 1532 1530 1528 1527 1525 1523 1520 1518 1516 1513 1511 1508 1506 1503 1501 1498
1541 1548 1557 1558 1552 1556 1544 1531 1532 1535 1533 1533 1531 1527 1526 1525 1524 1525 1525 1526 1527 1529 1530 1531 1532 1532 1532 1532 1531 1529 1528 1526 1524 1523 1521 1519 1517 1515 1513 1510 1508 1506 1503 1501
1537 1545 1557 1563 1559 1555 1537 1529 1530 1533 1531 1524 1525 1523 1523 1524 1524 1523 1522 1523 1525 1526 1528 1529 1530 1530 1530 1530 1530 1529 1527 1526 1524 1523 1521 1519 1517 1516 1514 1512 1510 1508 1506 1503
1540 1543 1555 1561 1556 1555 1538 1526 1526 1530 1531 1521 1520 1520 1522 1523 1528 1523 1520 1521 1522 1524 1525 1527 1528 1528 1529 1529 1528 1527 1526 1525 1524 1523 1521 1520 1518 1516 1515 1513 1511 1509 1507 1505
1545 1550 1555 1559 1557 1550 1529 1525 1527 1538 1535 1519 1518 1518 1519 1520 1520 1519 1519 1519 1520 1522 1523 1525 1526 1526 1527 1527 1527 1526 1526 1525 1524 1523 1521 1520 1518 1517 1515 1514 1512 1510 1508 1506
1544 1551 1555 1558 1557 1548 1523 1525 1528 1526 1519 1518 1517 1517 1517 1516 1517 1517 1517 1518 1519 1520 1521 1522 1523 1524 1525 1525 1525 1525 1524 1524 1523 1522 1521 1520 1519 1517 1516 1514 1513 1511 1509 1508
1537 1536 1539 1541 1537 1525 1522 1521 1520 1519 1518 1517 1516 1515 1515 1515 1515 1515 1516 1516 1517 1518 1519 1520 1521 1522 1523 1523 1523 1523 1523 1523 1522 1521 1520 1519 1518 1517 1516 1514 1513 1512 1510 1509
1531 1529 1531 1532 1524 1521 1520 1519 1517 1516 1516 1515 1514 1514 1513 1513 1513 1513 1513 1514 1515 1516 1517 1518 1518 1519 1520 1520 1521 1521 1521 1521 1520 1520 1519 1518 1517 1516 1515 1514 1513 1512 1510 1509
1526 1528 1528 1527 1522 1519 1517 1517 1515 1514 1513 1513 1513 1512 1512 1511 1511 1511 1511 1511 1512 1513 1514 1515 1515 1516 1516 1517 1518 1518 1518 1518 1518 1517 1517 1516 1516 1515 1514 1513 1512 1511 1510 1509
1524 1525 1526 1525 1522 1522 1519 1517 1515 1513 1512 1512 1511 1510 1510 1510 1509 1509 1509 1509 1509 1510 1511 1511 1512 1512 1513 1514 1514 1515 1515 1515 1515 1514 1514 1514 1513 1513 1512 1511 1510 1509 1509 1508